Precipitable_Water
1.42 1.46 1.51 1.62 1.62 1.61 1.60 1.66 1.68 1.68 1.69 1.66 1.64 1.66 1.63 1.53 1.47 1.49 1.48 1.40 1.19 1.10 1.09 1.08 1.10 1.13 1.14 1.20 1.26 1.28 1.30 1.30 1.29 1.33 1.40 1.44 1.51 1.55 1.50 1.47 1.50 1.57 1.54 1.45 1.53 1.52 1.69 1.73 1.65 1.68 1.67 1.66 1.74 1.70 1.62 1.66 1.71 1.67 1.66 1.68 1.66 1.58 1.47
1.45 1.48 1.49 1.56 1.68 1.71 1.68 1.68 1.75 1.75 1.69 1.67 1.67 1.64 1.70 1.65 1.56 1.48 1.52 1.51 1.35 1.23 1.18 1.15 1.13 1.13 1.07 1.10 1.16 1.22 1.25 1.28 1.29 1.32 1.37 1.41 1.43 1.47 1.49 1.47 1.47 1.52 1.56 1.55 1.53 1.55 1.61 1.68 1.68 1.60 1.59 1.66 1.69 1.68 1.62 1.60 1.61 1.61 1.58 1.61 1.57 1.66 1.55
1.43 1.50 1.53 1.50 1.57 1.73 1.79 1.81 1.77 1.69 1.64 1.68 1.72 1.70 1.74 1.73 1.66 1.57 1.54 1.54 1.49 1.37 1.30 1.23 1.16 1.15 1.11 1.07 1.05 1.10 1.17 1.24 1.25 1.27 1.27 1.32 1.36 1.37 1.39 1.43 1.42 1.46 1.50 1.51 1.54 1.52 1.57 1.57 1.63 1.63 1.64 1.54 1.56 1.71 1.71 1.63 1.51 1.53 1.57 1.61 1.49 1.54 1.53
1.43 1.48 1.51 1.60 1.61 1.69 1.71 1.78 1.78 1.76 1.69 1.70 1.69 1.70 1.76 1.73 1.80 1.69 1.63 1.59 1.55 1.54 1.37 1.34 1.27 1.19 1.15 1.11 1.09 1.10 1.11 1.15 1.20 1.22 1.24 1.31 1.33 1.36 1.35 1.35 1.37 1.39 1.41 1.44 1.49 1.48 1.49 1.50 1.53 1.57 1.60 1.60 1.54 1.58 1.60 1.64 1.57 1.54 1.59 1.64 1.53 1.54 1.56
1.40 1.48 1.54 1.54 1.56 1.61 1.72 1.75 1.78 1.85 1.84 1.76 1.74 1.68 1.77 1.89 1.87 1.69 1.65 1.64 1.69 1.70 1.65 1.49 1.41 1.30 1.23 1.20 1.18 1.19 1.15 1.12 1.13 1.16 1.20 1.24 1.32 1.33 1.33 1.32 1.32 1.33 1.40 1.38 1.47 1.48 1.47 1.47 1.45 1.45 1.46 1.54 1.54 1.57 1.56 1.61 1.65 1.65 1.56 1.61 1.56 1.55 1.57
1.30 1.41 1.46 1.50 1.53 1.59 1.66 1.71 1.75 1.85 1.86 1.86 1.84 1.81 1.83 1.82 1.77 1.70 1.71 1.71 1.66 1.67 1.74 1.74 1.57 1.43 1.25 1.20 1.20 1.21 1.22 1.21 1.15 1.13 1.13 1.16 1.24 1.27 1.25 1.28 1.32 1.30 1.29 1.33 1.40 1.41 1.49 1.47 1.44 1.40 1.37 1.38 1.44 1.51 1.55 1.55 1.60 1.66 1.57 1.55 1.53 1.52 1.50
1.24 1.33 1.39 1.44 1.50 1.55 1.63 1.73 1.78 1.79 1.86 1.94 1.92 1.89 1.86 1.80 1.77 1.73 1.71 1.71 1.72 1.66 1.70 1.75 1.69 1.58 1.38 1.31 1.25 1.23 1.23 1.20 1.18 1.13 1.13 1.11 1.16 1.21 1.24 1.26 1.30 1.30 1.31 1.35 1.33 1.37 1.39 1.38 1.38 1.40 1.40 1.35 1.31 1.37 1.44 1.46 1.45 1.53 1.61 1.56 1.57 1.55 1.51
1.18 1.25 1.34 1.38 1.46 1.53 1.59 1.65 1.75 1.76 1.82 1.92 1.90 1.86 1.85 1.84 1.83 1.80 1.76 1.76 1.72 1.67 1.67 1.66 1.70 1.67 1.58 1.44 1.35 1.26 1.26 1.26 1.25 1.18 1.13 1.08 1.09 1.11 1.18 1.21 1.23 1.29 1.27 1.27 1.29 1.31 1.35 1.36 1.36 1.34 1.37 1.38 1.33 1.29 1.37 1.38 1.39 1.43 1.48 1.53 1.53 1.50 1.52
1.18 1.25 1.30 1.35 1.43 1.47 1.53 1.56 1.61 1.67 1.78 1.89 1.91 1.90 1.88 1.88 1.84 1.78 1.74 1.76 1.76 1.75 1.75 1.75 1.76 1.88 1.87 1.63 1.47 1.38 1.31 1.33 1.33 1.25 1.15 1.09 1.07 1.06 1.10 1.15 1.16 1.20 1.22 1.21 1.25 1.26 1.29 1.34 1.35 1.32 1.29 1.29 1.34 1.33 1.32 1.38 1.37 1.39 1.40 1.42 1.45 1.42 1.44
1.14 1.18 1.25 1.34 1.40 1.48 1.55 1.63 1.68 1.79 1.86 1.88 1.93 1.91 1.85 1.86 1.84 1.85 1.82 1.77 1.73 1.71 1.77 1.83 1.79 1.76 1.82 1.89 1.78 1.58 1.51 1.43 1.39 1.34 1.26 1.12 1.07 1.04 1.04 1.10 1.15 1.16 1.14 1.16 1.19 1.19 1.21 1.28 1.30 1.33 1.30 1.25 1.26 1.29 1.27 1.34 1.37 1.37 1.37 1.39 1.42 1.42 1.40
1.13 1.16 1.19 1.25 1.28 1.34 1.42 1.51 1.58 1.69 1.81 1.88 1.89 1.90 1.93 1.97 1.96 1.93 1.90 1.89 1.81 1.76 1.78 1.83 1.85 1.79 1.86 1.94 1.97 1.83 1.75 1.67 1.54 1.40 1.35 1.23 1.12 1.05 1.04 1.03 1.08 1.14 1.11 1.11 1.10 1.16 1.17 1.17 1.27 1.26 1.25 1.22 1.23 1.22 1.22 1.25 1.31 1.34 1.36 1.35 1.38 1.41 1.42
1.08 1.12 1.15 1.17 1.22 1.27 1.32 1.42 1.48 1.54 1.67 1.78 1.82 1.86 1.86 1.91 2.01 2.02 1.97 1.94 1.94 1.91 1.90 1.92 1.91 1.84 1.79 1.81 1.73 1.74 1.80 1.85 1.78 1.63 1.45 1.36 1.26 1.17 1.12 1.08 1.04 1.08 1.15 1.12 1.07 1.09 1.20 1.17 1.17 1.22 1.22 1.19 1.19 1.19 1.19 1.20 1.23 1.28 1.32 1.34 1.33 1.36 1.42
1.03 1.07 1.12 1.15 1.18 1.23 1.28 1.35 1.40 1.47 1.58 1.71 1.77 1.80 1.83 1.84 1.87 1.97 1.99 1.95 1.98 1.98 1.97 1.94 1.96 1.96 1.89 1.87 1.86 1.94 1.96 1.85 1.80 1.79 1.65 1.51 1.41 1.35 1.28 1.21 1.15 1.14 1.19 1.19 1.12 1.04 1.07 1.18 1.16 1.17 1.19 1.18 1.16 1.16 1.17 1.16 1.18 1.20 1.24 1.29 1.31 1.32 1.32
0.98 1.00 1.06 1.12 1.16 1.16 1.19 1.26 1.35 1.43 1.53 1.66 1.75 1.82 1.85 1.87 1.90 1.92 1.97 2.02 2.04 2.00 1.97 1.97 1.94 1.88 1.86 1.84 1.82 1.79 1.82 1.89 2.01 1.98 1.91 1.79 1.58 1.46 1.42 1.36 1.31 1.26 1.28 1.32 1.23 1.14 1.03 1.05 1.15 1.16 1.15 1.17 1.16 1.17 1.18 1.17 1.14 1.16 1.21 1.23 1.27 1.28 1.28
0.87 0.93 0.98 1.02 1.08 1.16 1.16 1.19 1.26 1.34 1.45 1.59 1.69 1.75 1.79 1.86 1.90 1.93 1.98 2.03 2.07 2.02 1.96 2.01 1.97 1.92 1.89 1.90 1.89 1.84 1.83 1.91 2.06 2.08 2.09 1.96 1.92 1.71 1.51 1.46 1.39 1.32 1.28 1.32 1.34 1.29 1.20 1.06 1.07 1.17 1.14 1.14 1.16 1.17 1.18 1.19 1.15 1.14 1.14 1.15 1.16 1.19 1.19
0.83 0.86 0.93 0.97 1.02 1.08 1.16 1.20 1.22 1.25 1.32 1.45 1.61 1.72 1.74 1.77 1.82 1.85 1.88 1.95 1.99 1.98 2.03 2.06 2.04 1.95 1.87 1.88 1.92 1.90 1.85 1.87 1.98 2.08 2.08 2.08 2.00 1.90 1.87 1.71 1.58 1.47 1.34 1.30 1.35 1.36 1.32 1.23 1.11 1.11 1.18 1.14 1.14 1.16 1.16 1.14 1.16 1.15 1.13 1.12 1.10 1.10 1.10
0.84 0.85 0.88 0.92 0.98 1.02 1.06 1.14 1.21 1.23 1.23 1.28 1.40 1.56 1.63 1.69 1.76 1.78 1.80 1.91 1.96 1.93 1.98 2.04 2.07 2.01 1.97 1.98 2.03 2.02 2.01 2.02 2.01 2.09 2.05 2.01 2.01 1.95 1.87 1.86 1.93 1.76 1.55 1.44 1.36 1.34 1.40 1.35 1.28 1.15 1.17 1.27 1.20 1.13 1.12 1.14 1.11 1.09 1.11 1.10 1.09 1.09 1.07
0.83 0.85 0.85 0.86 0.91 0.95 0.97 1.00 1.09 1.15 1.18 1.21 1.26 1.35 1.46 1.57 1.65 1.70 1.76 1.82 1.83 1.87 1.92 1.93 1.96 1.99 2.02 2.04 2.05 2.03 1.99 1.98 1.98 2.06 2.08 2.04 2.00 1.97 1.96 2.05 2.09 2.05 2.00 1.83 1.62 1.50 1.43 1.43 1.38 1.33 1.25 1.23 1.30 1.29 1.21 1.17 1.15 1.10 1.06 1.05 1.05 1.06 1.08
0.81 0.82 0.85 0.86 0.87 0.88 0.91 0.93 0.98 1.03 1.09 1.14 1.17 1.24 1.33 1.42 1.54 1.65 1.73 1.75 1.78 1.80 1.76 1.79 1.81 1.85 1.92 2.01 2.07 2.07 2.07 2.07 2.03 2.04 1.99 2.00 2.05 2.07 2.04 2.01 1.99 2.01 2.02 1.97 2.03 1.91 1.72 1.53 1.47 1.43 1.39 1.28 1.24 1.27 1.33 1.30 1.29 1.27 1.19 1.11 1.05 1.04 1.04
0.81 0.81 0.82 0.84 0.86 0.86 0.87 0.90 0.95 0.99 1.02 1.05 1.07 1.12 1.19 1.24 1.33 1.44 1.56 1.64 1.71 1.72 1.72 1.72 1.75 1.81 1.85 1.91 1.96 2.02 2.05 2.04 2.06 2.07 2.09 2.12 2.09 2.10 2.07 1.98 1.91 1.88 1.90 2.01 2.07 1.89 1.81 1.82 1.68 1.59 1.55 1.47 1.37 1.30 1.31 1.32 1.35 1.30 1.26 1.23 1.20 1.18 1.14
0.80 0.79 0.76 0.77 0.80 0.81 0.81 0.82 0.86 0.92 0.97 1.00 1.02 1.01 1.07 1.07 1.15 1.25 1.34 1.41 1.48 1.58 1.62 1.62 1.66 1.70 1.81 1.86 1.92 1.96 1.98 2.00 1.99 2.00 2.06 2.12 2.16 2.15 2.12 2.00 1.97 1.91 1.86 1.81 1.79 1.85 1.94 1.98 1.85 1.79 1.76 1.72 1.61 1.50 1.42 1.34 1.38 1.38 1.34 1.29 1.25 1.24 1.23
0.76 0.77 0.74 0.74 0.76 0.80 0.79 0.77 0.78 0.83 0.90 0.97 1.01 0.95 1.00 1.02 1.04 1.07 1.12 1.20 1.24 1.35 1.40 1.43 1.43 1.50 1.60 1.70 1.82 1.89 1.94 1.96 1.96 1.95 1.98 1.99 2.05 2.08 2.05 2.03 2.01 1.94 1.92 1.92 1.94 1.98 2.08 2.13 2.03 1.98 1.98 1.95 1.90 1.79 1.66 1.68 1.64 1.54 1.49 1.40 1.34 1.31 1.28
0.77 0.75 0.75 0.74 0.76 0.78 0.80 0.78 0.77 0.80 0.85 0.88 0.95 0.91 0.93 1.00 1.00 1.01 1.00 1.01 1.05 1.17 1.19 1.22 1.22 1.30 1.41 1.50 1.59 1.71 1.84 1.92 1.92 1.87 1.88 1.90 1.94 1.97 2.00 1.99 2.00 2.03 2.03 1.93 1.95 1.89 1.86 1.93 2.00 1.98 1.93 1.92 1.94 1.90 1.87 1.86 1.85 1.81 1.75 1.70 1.63 1.46 1.36
0.77 0.74 0.72 0.73 0.76 0.76 0.76 0.77 0.76 0.80 0.81 0.80 0.84 0.84 0.91 0.97 0.99 0.97 0.96 0.94 0.93 1.02 1.05 1.04 1.07 1.15 1.23 1.31 1.39 1.52 1.63 1.75 1.84 1.83 1.85 1.89 1.89 1.93 2.00 2.07 2.08 2.03 2.07 2.02 2.02 1.97 1.90 1.90 1.88 1.89 1.92 1.90 1.89 1.93 1.87 1.81 1.82 1.82 1.81 1.80 1.80 1.75 1.66
0.76 0.74 0.71 0.68 0.72 0.67 0.69 0.73 0.76 0.78 0.78 0.77 0.79 0.78 0.84 0.92 0.97 0.96 0.93 0.93 0.91 0.96 0.96 0.97 0.99 1.02 1.08 1.15 1.27 1.36 1.47 1.58 1.67 1.71 1.75 1.78 1.86 1.93 1.94 2.01 2.02 2.03 2.01 2.04 2.09 2.12 2.16 2.14 2.05 1.99 1.98 1.93 1.88 1.91 1.92 1.90 1.89 1.87 1.84 1.81 1.79 1.78 1.78
0.76 0.75 0.74 0.72 0.72 0.63 0.65 0.68 0.70 0.73 0.71 0.75 0.78 0.80 0.81 0.87 0.88 0.88 0.88 0.90 0.92 0.93 0.93 0.94 0.97 0.99 1.04 1.06 1.14 1.23 1.32 1.39 1.44 1.52 1.60 1.68 1.74 1.76 1.85 1.91 1.95 1.96 1.94 1.94 1.99 2.02 2.10 2.16 2.16 2.12 2.07 2.07 2.02 1.99 1.93 1.86 1.91 2.01 1.99 1.92 1.85 1.84 1.83
0.78 0.79 0.77 0.76 0.71 0.62 0.64 0.64 0.65 0.63 0.66 0.74 0.75 0.78 0.79 0.79 0.76 0.74 0.76 0.81 0.86 0.92 0.94 0.99 0.99 0.99 0.99 1.01 1.01 1.08 1.14 1.22 1.29 1.34 1.48 1.57 1.61 1.66 1.73 1.79 1.80 1.83 1.90 1.93 2.00 2.03 2.03 2.04 2.08 2.11 2.13 2.14 2.13 2.09 2.05 1.99 1.94 2.00 2.02 2.03 2.01 1.98 1.92
0.77 0.79 0.78 0.74 0.70 0.71 0.69 0.65 0.63 0.63 0.68 0.70 0.69 0.74 0.74 0.71 0.68 0.68 0.71 0.72 0.78 0.86 0.96 0.99 0.99 0.98 1.00 0.96 0.99 1.00 1.01 1.08 1.16 1.23 1.27 1.42 1.51 1.53 1.54 1.63 1.74 1.81 1.80 1.81 1.86 1.91 1.96 1.98 1.98 1.98 2.03 2.12 2.16 2.15 2.14 2.12 2.06 2.01 1.99 1.97 1.97 1.98 1.98
0.73 0.71 0.70 0.68 0.69 0.70 0.67 0.62 0.60 0.61 0.61 0.63 0.66 0.68 0.69 0.66 0.65 0.65 0.67 0.68 0.76 0.85 0.90 0.94 0.93 0.96 0.95 0.95 0.94 0.96 0.97 1.01 1.03 1.07 1.11 1.22 1.38 1.45 1.42 1.46 1.53 1.61 1.78 1.86 1.89 1.89 1.90 1.93 2.00 2.03 2.04 2.07 2.11 2.17 2.18 2.17 2.16 2.11 2.04 2.00 1.97 1.95 1.94
0.66 0.65 0.65 0.64 0.63 0.62 0.59 0.58 0.58 0.57 0.59 0.60 0.63 0.64 0.66 0.66 0.63 0.64 0.63 0.65 0.75 0.79 0.85 0.84 0.87 0.90 0.92 0.91 0.91 0.89 0.92 0.94 0.98 0.99 1.06 1.16 1.25 1.24 1.24 1.35 1.46 1.49 1.56 1.71 1.79 1.83 1.83 1.85 1.94 2.01 2.01 2.00 2.04 2.09 2.16 2.21 2.21 2.20 2.15 2.09 2.03 1.98 1.96
0.54 0.55 0.54 0.53 0.53 0.56 0.54 0.51 0.50 0.53 0.55 0.58 0.59 0.61 0.62 0.64 0.60 0.60 0.59 0.65 0.68 0.69 0.70 0.78 0.80 0.83 0.82 0.84 0.86 0.87 0.86 0.87 0.90 0.98 1.06 1.03 1.00 1.04 1.15 1.25 1.37 1.42 1.50 1.55 1.61 1.71 1.80 1.91 2.02 2.04 2.05 2.03 2.04 2.08 2.12 2.19 2.24 2.21 2.19 2.15 2.12 2.07 2.02
0.50 0.51 0.52 0.53 0.54 0.53 0.52 0.50 0.51 0.51 0.50 0.54 0.57 0.57 0.58 0.58 0.58 0.54 0.58 0.65 0.69 0.68 0.66 0.69 0.74 0.75 0.76 0.76 0.78 0.80 0.81 0.79 0.84 0.92 0.97 0.92 0.98 1.03 1.13 1.15 1.19 1.26 1.39 1.49 1.52 1.56 1.61 1.67 1.74 1.83 1.88 1.94 2.04 2.11 2.15 2.21 2.22 2.22 2.23 2.21 2.16 2.12 2.08
0.45 0.47 0.49 0.50 0.53 0.54 0.52 0.50 0.49 0.49 0.50 0.51 0.55 0.58 0.59 0.60 0.60 0.61 0.63 0.65 0.68 0.69 0.69 0.67 0.68 0.69 0.69 0.70 0.70 0.70 0.72 0.77 0.80 0.85 0.88 0.93 0.91 0.88 0.86 0.92 1.02 1.12 1.23 1.32 1.38 1.42 1.41 1.40 1.45 1.54 1.67 1.76 1.82 1.92 2.04 2.15 2.19 2.24 2.22 2.23 2.18 2.13 2.11
0.44 0.45 0.49 0.50 0.52 0.53 0.52 0.52 0.51 0.50 0.51 0.51 0.55 0.57 0.59 0.60 0.61 0.62 0.64 0.66 0.66 0.67 0.67 0.64 0.65 0.65 0.67 0.68 0.69 0.69 0.68 0.69 0.77 0.81 0.81 0.81 0.83 0.83 0.85 0.89 0.94 0.99 1.01 1.05 1.15 1.23 1.29 1.30 1.32 1.38 1.45 1.52 1.64 1.73 1.82 1.88 2.03 2.14 2.17 2.18 2.17 2.15 2.15
0.45 0.46 0.47 0.47 0.49 0.51 0.51 0.51 0.52 0.53 0.51 0.52 0.55 0.56 0.56 0.58 0.62 0.66 0.66 0.67 0.68 0.68 0.66 0.65 0.66 0.68 0.67 0.70 0.71 0.68 0.67 0.71 0.73 0.74 0.73 0.75 0.79 0.84 0.85 0.84 0.86 0.89 0.92 0.99 1.06 1.11 1.15 1.19 1.27 1.34 1.38 1.44 1.53 1.60 1.65 1.76 1.82 1.98 2.19 2.22 2.23 2.19 2.13
0.46 0.47 0.48 0.50 0.51 0.52 0.53 0.55 0.55 0.53 0.53 0.54 0.54 0.54 0.54 0.54 0.57 0.61 0.65 0.68 0.70 0.70 0.67 0.68 0.68 0.65 0.66 0.69 0.70 0.68 0.70 0.71 0.70 0.69 0.70 0.70 0.71 0.72 0.77 0.86 0.85 0.85 0.86 0.91 1.00 1.04 1.10 1.17 1.19 1.26 1.34 1.36 1.43 1.53 1.55 1.61 1.74 1.86 1.90 1.99 2.06 2.11 2.11
0.47 0.47 0.49 0.50 0.51 0.52 0.53 0.54 0.56 0.56 0.56 0.57 0.57 0.57 0.60 0.60 0.60 0.59 0.62 0.66 0.70 0.71 0.70 0.70 0.69 0.69 0.70 0.71 0.71 0.73 0.75 0.72 0.69 0.69 0.68 0.69 0.69 0.71 0.69 0.69 0.76 0.82 0.85 0.89 0.94 1.00 1.02 1.05 1.08 1.15 1.24 1.32 1.32 1.41 1.52 1.58 1.65 1.72 1.78 1.80 1.83 1.90 1.98
0.50 0.51 0.49 0.50 0.51 0.52 0.53 0.54 0.54 0.54 0.53 0.57 0.58 0.58 0.60 0.62 0.65 0.63 0.64 0.64 0.66 0.70 0.71 0.71 0.74 0.74 0.74 0.75 0.77 0.79 0.76 0.73 0.70 0.69 0.69 0.66 0.67 0.69 0.69 0.68 0.65 0.68 0.77 0.83 0.88 0.93 0.96 0.97 1.01 1.06 1.14 1.23 1.30 1.32 1.34 1.42 1.51 1.60 1.66 1.71 1.75 1.77 1.83
Wind_Speed
15 14 14 13 14 15 16 17 17 17 17 18 18 17 18 18 17 17 17 17 17 17 17 17 16 16 16 16 15 15 14 14 14 14 13 13 12 12 11 10 10 9 9 9 8 8 7 7 7 7 7 6 6 6 6 6 6 6 6 6 6 6 7
14 14 14 14 14 14 15 17 17 17 17 18 18 18 18 18 18 17 17 18 18 18 17 17 17 16 16 16 16 16 15 15 14 14 14 14 13 13 12 11 11 10 10 9 9 8 8 8 8 7 7 7 6 6 6 6 6 6 6 6 6 6 6
13 14 14 14 14 14 14 15 17 17 17 18 18 18 18 18 18 18 18 18 18 18 18 17 17 17 17 17 16 16 16 15 15 15 15 15 14 14 13 12 11 11 10 10 9 9 9 8 8 8 7 7 7 6 6 6 6 6 6 6 6 6 6
12 13 13 13 13 14 14 14 15 16 17 18 19 19 18 18 19 18 18 19 19 19 19 18 18 17 17 17 17 17 16 16 16 16 16 16 15 15 14 13 13 12 11 11 10 10 9 9 9 9 8 8 7 7 6 6 6 6 6 6 6 6 6
11 12 12 11 11 13 14 14 14 14 16 18 19 19 19 19 19 19 18 19 19 19 19 19 19 18 18 18 17 17 17 16 16 16 16 16 16 16 15 14 14 13 12 12 11 10 10 10 10 9 9 9 8 8 7 7 7 6 6 6 6 6 6
9 10 11 12 12 12 12 13 13 13 15 18 19 19 19 18 18 18 18 19 19 19 20 20 19 19 19 19 18 18 17 17 17 17 17 17 17 17 16 16 15 14 14 13 12 12 11 11 10 10 10 9 9 9 8 8 8 7 7 7 6 6 6
10 9 10 12 14 13 12 12 12 13 15 18 19 19 19 18 18 18 19 19 19 19 20 20 20 20 19 19 19 18 18 18 17 17 17 17 17 17 17 17 16 15 15 14 13 13 12 12 11 11 11 10 10 10 9 8 8 8 8 7 7 7 6
12 10 8 9 12 13 13 11 10 11 13 16 18 18 18 18 18 18 19 19 19 19 19 20 20 19 19 20 20 20 19 19 18 18 18 18 18 18 18 18 17 17 16 15 15 14 13 13 13 12 12 11 11 10 10 9 9 9 8 8 8 8 7
12 12 10 9 10 12 13 12 10 10 11 13 15 16 16 16 17 17 18 19 19 18 18 19 19 19 19 19 20 21 20 20 19 19 19 18 18 19 19 18 18 18 17 16 16 15 15 14 14 13 13 12 12 11 11 11 10 9 9 9 9 8 8
11 11 11 11 11 12 13 13 12 11 11 11 12 13 14 15 16 16 17 18 19 19 19 19 19 20 20 20 20 20 20 20 20 20 20 19 19 19 19 19 19 19 19 18 17 16 16 15 15 14 14 13 13 12 12 12 11 11 10 10 10 9 9
11 10 11 11 11 11 12 13 13 11 10 10 11 11 11 13 14 14 14 16 18 18 18 19 19 20 21 21 20 20 21 21 21 21 21 20 20 20 20 20 19 19 20 19 18 17 17 17 16 15 15 14 14 13 13 13 12 12 11 11 11 10 10
11 11 10 10 11 10 11 12 13 12 11 10 11 11 11 11 12 13 14 14 15 16 17 18 18 19 20 21 21 21 21 22 22 21 21 21 21 20 20 20 20 20 20 20 20 19 18 18 17 16 16 15 15 14 14 14 13 13 12 12 11 11 11
12 11 10 10 10 10 10 10 11 12 12 12 12 12 12 11 11 12 13 13 14 15 15 16 18 18 19 20 21 21 22 22 23 23 22 21 21 21 20 20 21 21 20 20 20 20 19 19 18 18 17 16 16 16 15 15 14 14 13 13 12 12 11
12 12 11 10 9 9 10 10 11 11 12 12 13 14 14 13 12 12 12 13 13 14 14 15 17 18 19 19 21 22 22 22 23 23 23 22 21 22 22 21 21 21 21 20 20 20 20 20 19 19 18 17 17 16 16 16 15 15 15 14 14 13 12
11 11 11 11 10 9 9 10 11 11 11 12 13 14 15 15 14 14 14 13 13 14 14 14 15 17 18 18 19 22 23 23 22 22 23 23 22 21 22 22 21 21 21 21 21 20 20 20 20 19 19 19 18 18 17 17 16 16 16 15 15 15 14
12 12 12 11 10 10 10 10 11 11 12 12 13 14 15 14 13 14 14 14 14 14 14 14 14 15 16 16 17 19 22 23 23 23 23 24 23 22 21 21 21 22 22 22 22 21 21 21 20 20 19 19 19 19 18 18 17 18 18 17 16 16 15
12 12 12 12 11 11 10 10 10 11 12 12 13 13 14 13 13 12 12 13 14 14 13 13 13 14 15 16 16 17 18 20 22 23 23 22 23 23 23 23 22 21 22 22 23 23 22 21 21 21 20 20 19 19 19 19 19 19 19 19 18 18 17
13 13 12 12 12 12 11 11 10 10 11 11 12 12 12 12 13 12 12 12 12 12 13 13 12 13 15 16 17 17 18 18 20 21 21 21 20 22 24 26 25 23 21 21 22 23 23 23 22 21 21 21 20 20 20 20 20 20 20 20 20 20 19
13 13 13 13 13 12 12 12 11 11 11 11 11 11 12 12 12 13 13 13 13 13 13 13 13 13 14 16 17 17 18 18 19 19 20 20 20 21 23 25 26 25 23 21 20 20 22 22 22 22 22 22 22 21 20 20 21 21 21 21 21 21 21
14 14 14 14 13 13 13 13 12 12 12 12 11 11 12 12 12 12 13 13 14 14 14 14 13 13 14 15 17 18 18 18 18 18 19 19 20 21 22 23 24 24 24 23 21 21 21 21 21 22 22 22 23 23 22 21 21 22 22 22 22 22 22
16 16 16 15 15 14 14 14 14 14 13 13 13 13 12 12 12 12 12 13 13 13 13 14 14 13 14 15 16 18 19 19 19 19 19 19 19 19 20 21 22 23 22 22 21 22 23 22 22 22 22 22 22 23 23 22 21 21 22 23 23 23 23
17 17 17 17 16 15 15 15 15 15 16 15 15 14 14 14 13 13 13 12 13 13 13 14 14 14 14 14 15 16 18 18 19 19 19 19 20 19 19 20 21 21 22 21 21 22 23 23 23 23 23 23 24 24 25 25 24 23 22 22 23 24 24
18 18 18 18 18 16 16 17 17 17 17 17 16 16 16 16 15 15 14 14 14 13 13 14 14 15 15 15 15 15 16 18 18 19 19 20 20 20 20 20 20 20 21 21 22 22 23 24 24 24 24 25 25 25 26 26 27 27 26 25 25 24 24
19 19 18 19 19 18 18 18 19 19 19 18 18 18 18 18 17 17 17 16 16 15 15 15 15 15 16 16 16 16 16 17 18 18 19 20 20 21 21 21 21 20 20 21 22 22 23 24 24 25 25 25 26 26 26 26 27 27 27 27 27 26 26
20 20 20 20 19 19 20 20 20 21 21 20 20 20 20 20 19 19 19 19 18 18 18 17 17 17 17 17 17 17 17 17 18 18 19 20 20 21 21 21 21 21 21 21 21 22 23 24 24 25 25 26 26 26 27 27 26 26 27 28 28 28 28
22 21 21 21 20 20 22 22 22 22 22 22 22 22 22 22 22 22 22 21 21 21 20 20 20 19 19 19 19 19 18 18 18 18 19 19 20 21 22 22 23 23 22 22 22 23 23 24 24 24 25 25 26 26 27 27 27 26 27 27 28 29 29
23 23 23 22 22 22 23 23 23 24 24 24 24 24 24 24 25 25 25 24 24 23 23 23 23 22 22 21 21 21 20 20 19 19 19 19 20 20 21 22 24 25 25 24 24 24 24 25 25 25 25 25 25 26 26 27 27 27 27 27 28 29 29
24 24 23 23 24 24 24 24 24 25 25 25 25 26 26 26 26 27 26 26 26 26 26 26 26 25 25 24 23 23 23 22 22 21 20 20 20 20 21 21 22 23 24 25 25 26 26 27 27 27 27 26 26 26 26 26 26 27 27 28 28 29 29
25 25 24 24 25 25 24 25 26 26 27 27 27 27 27 28 28 28 28 28 28 28 28 28 28 28 27 27 26 25 25 25 25 24 23 22 22 21 21 21 21 21 22 23 24 25 26 27 27 28 28 27 27 27 27 26 26 26 27 27 28 29 29
26 26 26 26 26 26 26 26 27 28 28 29 29 29 29 29 29 29 30 30 30 30 30 30 30 30 30 29 29 28 28 27 27 27 26 25 25 24 23 22 21 21 21 22 23 23 24 24 25 26 27 27 28 28 28 28 27 26 26 27 27 28 29
25 26 26 27 27 27 27 27 28 28 29 29 29 30 30 30 31 31 31 32 32 32 32 32 32 32 31 31 31 31 30 30 30 29 29 28 28 27 25 24 23 22 22 22 22 23 24 24 25 25 26 27 27 28 28 28 28 27 27 27 27 27 28
25 26 26 27 27 27 27 28 28 29 29 29 29 30 30 31 31 32 32 32 32 33 33 33 33 33 33 33 32 32 33 32 32 31 31 30 30 29 28 27 26 25 24 23 23 23 24 24 25 26 27 27 27 27 27 28 28 28 28 27 27 27 28
25 25 26 26 27 27 27 28 29 29 29 29 29 30 30 30 31 32 32 32 33 33 33 34 34 34 34 34 33 33 33 34 34 33 33 32 31 31 31 30 29 27 26 25 25 24 24 24 25 26 27 28 28 28 28 28 27 27 27 28 28 28 28
25 25 25 26 26 27 28 28 29 29 29 30 30 30 30 31 31 32 32 33 33 33 34 34 34 34 35 34 34 33 34 34 34 34 34 33 33 33 33 32 31 30 29 28 28 28 27 26 26 26 27 28 29 29 29 29 28 27 27 27 28 28 28
25 25 25 26 26 27 27 28 28 28 29 29 29 30 31 31 32 32 33 33 33 33 34 34 34 35 35 35 34 34 34 35 35 34 35 35 35 35 35 34 34 33 32 31 31 30 29 29 28 28 28 28 29 29 30 30 29 29 29 28 28 28 29
25 26 26 26 26 26 27 27 27 28 28 28 29 29 30 31 31 32 32 33 33 33 34 35 35 35 35 35 35 35 35 35 34 34 35 35 36 36 36 36 36 36 35 34 34 33 32 31 31 30 29 29 29 29 30 31 31 31 32 32 32 32 32
26 26 26 26 27 27 27 27 27 28 28 28 29 30 30 30 31 31 32 32 33 33 34 34 35 35 35 36 35 35 34 34 34 35 35 36 37 37 37 37 37 37 37 37 36 35 35 34 33 33 32 31 30 30 30 31 32 32 33 33 33 33 34
25 26 26 26 27 27 27 27 27 28 28 28 29 30 30 30 31 31 32 32 32 33 33 34 34 35 35 35 35 35 35 35 35 36 36 36 37 37 37 37 37 38 38 38 38 37 37 36 36 35 34 33 33 32 31 31 32 32 33 33 34 34 34
Wind_Direction
202 201 202 204 206 206 206 205 205 208 207 205 209 212 211 210 208 204 203 205 205 205 205 205 206 206 205 206 206 206 206 205 203 201 200 199 198 198 197 196 195 194 193 193 191 188 185 182 181 180 176 173 172 170 170 171 172 175 177 179 181 183 185
204 202 200 201 203 204 205 205 206 209 209 208 209 211 212 213 210 206 204 206 207 207 207 207 207 207 208 208 209 209 208 207 206 205 204 204 203 202 201 200 199 198 197 197 195 194 192 189 189 187 182 180 180 178 176 177 178 180 182 184 184 186 190
205 204 201 201 202 203 204 205 207 209 210 210 209 211 215 216 211 209 206 206 209 209 209 209 209 209 209 210 211 211 211 209 208 208 208 207 206 205 205 204 203 202 202 201 200 199 198 195 196 195 191 190 189 186 184 184 186 186 186 187 188 189 193
205 205 204 202 202 203 205 207 207 208 210 209 209 211 216 216 213 213 210 207 209 211 211 212 212 211 211 211 212 213 213 212 211 211 210 210 209 208 207 208 207 206 206 205 204 202 202 201 202 201 200 199 198 195 193 192 193 192 191 193 193 192 195
207 206 206 206 204 204 206 208 209 212 212 210 209 211 214 215 213 213 213 210 210 212 214 214 213 213 214 214 215 216 216 215 214 213 213 212 211 211 210 211 210 210 209 209 208 206 205 206 207 207 208 207 206 205 202 200 201 200 197 198 199 199 200
208 205 208 210 208 206 208 211 214 219 218 213 212 212 213 214 212 212 214 213 212 213 215 215 215 215 215 216 217 217 218 218 217 216 216 214 213 213 213 213 213 214 214 213 212 211 209 210 211 211 212 212 212 212 210 208 207 207 205 205 207 207 206
209 208 210 209 206 206 209 213 218 222 219 214 212 212 213 215 213 212 215 214 213 215 216 217 217 217 217 217 219 218 219 220 220 219 218 217 216 216 216 216 216 216 217 217 216 215 214 214 214 215 215 216 216 216 216 216 214 212 213 212 213 214 213
210 210 209 204 203 207 211 215 219 218 214 211 209 210 213 214 214 215 217 216 216 218 218 218 219 220 220 219 220 220 220 221 222 221 221 221 219 218 218 219 219 219 219 220 220 219 218 218 218 218 219 219 219 218 218 220 221 219 218 218 217 219 221
208 210 210 205 203 206 208 211 214 211 207 206 205 207 212 215 217 219 220 220 219 220 221 221 222 224 225 223 222 222 222 222 222 222 223 223 222 222 221 221 221 221 221 222 222 222 222 222 222 221 221 222 221 222 220 221 224 225 224 224 223 223 225
203 207 210 210 212 212 209 208 210 208 203 200 200 204 211 215 216 218 221 223 222 223 224 223 223 225 227 227 225 224 224 224 224 223 223 224 224 224 224 224 223 222 223 223 224 225 224 225 225 224 224 223 223 223 224 223 225 227 228 228 229 229 229
202 203 205 208 214 219 217 213 212 210 205 199 200 205 211 214 215 215 219 221 221 223 225 224 224 225 227 229 229 229 228 227 227 226 225 225 225 226 226 226 226 225 225 225 225 226 226 226 227 226 225 225 224 224 226 226 227 229 231 231 232 233 234
204 203 204 207 210 216 219 216 214 214 212 207 204 208 213 217 218 217 217 218 218 221 224 225 226 227 228 229 230 231 231 230 229 229 228 227 227 227 227 227 229 228 227 227 227 228 228 227 228 228 227 227 227 227 227 228 229 231 233 234 235 236 237
204 202 203 206 209 214 217 216 215 215 216 215 212 212 214 219 223 223 222 221 221 223 225 227 228 228 229 231 231 232 233 232 230 231 232 231 230 229 229 228 229 230 229 228 228 229 230 230 229 229 229 228 228 229 229 230 231 233 234 235 236 238 239
205 204 203 205 209 214 217 217 217 217 218 218 218 218 219 222 226 228 228 227 225 225 228 230 232 231 232 234 234 233 234 234 233 234 234 234 234 233 231 231 231 231 231 230 229 229 231 232 231 230 230 231 230 230 231 232 233 234 236 237 238 239 240
210 210 209 208 210 214 218 220 220 219 220 220 221 223 225 227 232 234 236 235 230 228 231 234 234 233 234 236 237 236 236 236 238 237 234 236 239 236 233 234 234 233 233 233 231 230 231 232 233 232 231 231 233 233 233 234 236 237 238 239 240 241 241
213 212 212 213 213 214 216 220 223 223 223 224 225 227 227 228 233 237 240 240 234 229 232 236 237 236 236 238 240 240 238 237 238 238 236 236 239 238 235 236 237 236 235 234 233 233 232 232 233 234 234 232 233 235 236 237 238 239 239 240 241 243 243
217 215 215 216 218 218 217 219 224 226 226 227 229 232 232 232 233 234 238 240 235 229 230 236 240 241 241 241 242 241 239 238 239 242 243 241 240 240 238 238 241 240 238 237 236 235 235 233 233 234 236 236 234 234 236 239 240 239 240 241 242 243 245
218 218 218 218 220 223 222 221 224 227 229 229 229 232 236 238 238 238 242 244 241 236 234 237 243 246 244 244 244 243 242 243 244 248 250 247 244 243 241 242 245 245 241 240 239 237 236 235 234 234 236 238 238 236 236 238 240 240 241 242 242 243 245
218 219 221 220 220 223 224 225 226 228 231 231 230 231 234 237 240 242 246 249 247 245 243 243 246 248 246 245 244 244 245 246 247 250 252 250 248 247 245 246 248 247 245 245 243 240 238 238 237 236 237 238 240 240 240 240 240 239 241 243 243 244 244
222 221 222 222 222 224 225 227 229 232 233 233 232 232 234 237 240 242 245 248 247 248 249 249 250 252 250 247 244 244 246 248 249 251 253 252 250 249 247 247 248 248 249 250 248 243 242 242 241 240 240 240 241 243 245 245 244 241 241 242 243 244 245
225 222 224 226 224 225 228 231 234 236 237 237 236 236 237 239 242 243 246 248 247 247 249 250 251 253 255 253 250 247 248 249 251 252 253 253 252 250 248 247 247 248 250 251 249 244 242 244 244 243 243 243 243 244 246 247 249 248 246 245 244 244 246
228 224 226 230 229 228 232 235 237 239 239 239 239 241 241 242 244 245 246 249 250 249 250 251 252 252 254 257 258 255 253 252 252 253 253 254 254 253 251 250 249 248 248 247 247 244 242 244 245 245 245 245 245 246 246 247 249 250 251 251 249 247 248
230 228 229 232 233 233 236 239 241 241 241 241 241 243 245 245 246 246 247 250 252 253 253 254 255 256 256 258 260 259 257 256 255 254 254 255 255 254 254 253 252 250 249 248 247 246 246 246 247 247 247 248 248 248 249 249 249 249 250 251 252 252 252
231 231 233 235 236 238 241 243 244 244 245 244 244 246 246 246 246 248 249 251 253 254 255 257 259 261 260 261 261 260 259 258 257 256 255 255 255 255 254 254 253 252 251 251 251 250 248 248 248 247 247 248 249 250 250 251 251 251 250 250 251 252 253
235 236 238 238 239 242 245 245 246 247 248 248 248 249 249 247 248 248 249 251 252 253 255 258 260 262 263 263 264 263 261 260 258 258 257 256 256 255 254 253 253 253 253 254 253 252 250 250 249 249 248 249 250 250 251 252 252 251 251 251 250 252 253
236 239 241 242 244 246 246 246 247 249 250 250 251 252 252 251 251 251 251 252 251 252 254 256 258 261 262 263 264 264 264 263 261 260 260 259 257 257 256 255 254 254 255 255 255 254 252 252 251 251 251 251 251 251 251 253 254 253 252 252 251 252 253
239 241 244 246 248 248 247 248 249 250 251 252 253 253 253 253 253 254 254 253 252 252 253 255 257 259 261 262 263 263 264 264 264 263 262 261 259 258 258 257 257 257 255 256 256 255 253 253 253 253 252 253 253 252 253 253 253 253 253 253 253 253 254
244 245 247 248 248 248 249 250 252 253 253 254 254 254 255 255 255 255 255 254 254 254 254 255 256 258 260 261 261 261 262 263 264 264 263 261 261 261 261 260 260 259 257 257 258 257 254 253 253 253 253 253 253 254 255 254 254 254 254 254 254 255 255
247 249 251 251 251 251 252 253 254 255 256 256 256 256 256 257 256 256 255 255 255 255 255 255 256 257 259 260 260 260 260 260 261 263 263 262 262 263 264 263 262 262 261 259 259 260 258 256 255 254 254 254 253 254 254 255 255 255 255 255 255 255 256
249 251 253 254 254 255 255 255 255 256 256 256 257 258 258 258 258 258 257 257 256 256 256 256 256 256 257 259 260 260 260 259 259 260 260 261 262 263 264 265 264 263 263 262 260 260 260 258 255 254 254 254 254 254 253 254 255 256 256 256 255 256 256
251 253 254 255 256 257 257 257 257 257 257 257 258 258 258 258 259 259 260 259 258 258 257 257 256 256 257 259 259 260 260 259 258 257 257 259 261 261 262 264 264 264 264 264 263 261 259 258 257 257 256 256 256 255 254 254 255 255 256 256 255 256 256
252 254 255 256 257 258 258 258 258 258 258 259 259 259 259 259 259 259 260 260 260 260 259 258 258 257 257 258 258 259 260 260 258 257 257 258 258 259 260 262 262 263 264 264 264 262 261 261 261 260 260 259 258 258 257 256 256 256 255 256 256 256 257
253 255 256 257 258 258 258 258 259 259 260 261 261 261 260 260 260 260 260 260 261 261 260 259 259 258 258 258 258 259 260 259 258 258 258 257 257 258 260 261 260 261 261 263 263 263 263 263 263 262 261 261 260 260 259 259 258 258 256 256 257 258 258
254 256 257 258 259 258 258 258 258 260 261 262 262 262 262 262 262 261 261 261 261 261 261 260 260 259 259 259 259 259 259 258 258 258 258 258 258 259 259 260 260 260 260 261 262 263 264 264 264 263 262 261 261 260 260 259 258 258 258 258 259 259 258
255 257 258 259 259 259 259 258 259 260 261 262 262 263 263 263 263 263 262 262 261 261 261 261 260 260 260 260 260 260 259 258 258 259 259 260 259 259 258 259 260 260 260 259 260 261 262 263 264 263 263 262 262 261 260 258 258 258 258 259 259 260 260
257 258 259 259 259 260 260 260 260 260 261 261 262 263 264 264 264 263 263 262 262 262 261 261 261 261 260 260 260 260 259 259 260 260 260 260 260 259 259 259 260 260 260 259 259 259 260 261 262 262 263 262 261 261 260 259 259 259 260 260 259 260 260
257 258 259 260 260 260 261 261 261 261 261 262 262 263 263 264 264 264 263 263 262 262 262 262 262 261 261 261 261 261 260 261 261 261 261 260 260 260 260 260 260 259 259 259 258 259 259 260 260 260 261 261 260 260 261 261 261 260 260 260 260 260 260
256 258 259 260 260 261 262 262 262 263 263 263 263 264 264 264 264 264 264 263 263 263 263 263 263 263 262 261 261 262 262 262 263 262 262 261 260 260 260 261 261 260 260 259 258 258 259 259 259 259 260 259 258 258 260 261 262 262 262 261 260 260 260